Weather History for Boulder City, NV

Change the Weather History Date:

Saturday, March 29, 2014

  Actual Average (KLAS) Record (KLAS)
Temperature  
Mean Temperature 66 °F 62 °F  
Max Temperature 82 °F 74 °F 86 °F (1966)
Min Temperature 50 °F 52 °F 33 °F (1975)
Degree Days  
Heating Degree Days 0 4  
Month to date heating degree days 181  
Since 1 July heating degree days 1872  
Cooling Degree Days 1 2  
Month to date cooling degree days 24  
Year to date cooling degree days 25  
Growing Degree Days 16 (Base 50)    
Moisture  
Dew Point 24 °F    
Average Humidity 22    
Maximum Humidity 43    
Minimum Humidity 10    
Precipitation  
Precipitation 0.00 in 0.01 in 0.11 in (1938)
Month to date precipitation 0.42  
Year to date precipitation 1.72  
Snow  
Snow 0.00 in 0.00 in 0.00 in (2013)
Month to date snowfall 0.0  
Since 1 July snowfall 0.3  
Snow Depth -    
Sea Level Pressure  
Sea Level Pressure 30.00 in    
Wind  
Wind Speed 6 mph (South)    
Max Wind Speed 22 mph    
Max Gust Speed 29 mph    
Visibility 10 miles    
Events Thunderstorm    
T = Trace of Precipitation, MM = Missing Value Source: NWS Daily Summary

Daily Weather History Graph

Daily Weather History Graph

Search for Another Location

Airport:

Trip Planner

Search our weather history database for the weather conditions in past years. The results will help you decide how hot, cold, wet, or windy it might be!

Date:

Astronomy

Mar. 29, 2014 Rise Set
Actual Time 6:29 AM PDT 6:58 PM PDT
Civil Twilight 6:04 AM PDT 7:24 PM PDT
Nautical Twilight 5:34 AM PDT 7:54 PM PDT
Astronomical Twilight 5:03 AM PDT 8:25 PM PDT
Moon 5:39 AM PDT (3/29) 6:09 PM PDT (3/29)
Length of Visible Light 13h 20m
Length of Day
12h 28m
Waning Crescent, 1% of the Moon is Illuminated
Mar 29
Waning Crescent
Mar 30
New
Apr 7
First Quarter
Apr 15
Full
Apr 22
Last Quarter

Hourly Weather History & Observations

Time (PDT) Temp. Dew Point Humidity Pressure Visibility Wind Dir Wind Speed Gust Speed Precip Events Conditions
12:15 AM 55.4 °F 28.4 °F 36% 30.10 in 10.0 mi Calm Calm - N/A   Clear
12:35 AM 57.2 °F 24.8 °F 29% 30.11 in 10.0 mi Calm Calm - N/A   Clear
12:55 AM 55.4 °F 26.6 °F 33% 30.12 in 10.0 mi Calm Calm - N/A   Clear
1:15 AM 55.4 °F 26.6 °F 33% 30.12 in 10.0 mi Calm Calm - N/A   Clear
1:35 AM 53.6 °F 28.4 °F 38% 30.12 in 10.0 mi NE 3.5 mph - N/A   Clear
1:55 AM 53.6 °F 30.2 °F 41% 30.11 in 10.0 mi NNE 3.5 mph - N/A   Clear
2:15 AM 51.8 °F 26.6 °F 38% 30.11 in 10.0 mi Calm Calm - N/A   Clear
2:35 AM 53.6 °F 28.4 °F 38% 30.11 in 10.0 mi Calm Calm - N/A   Clear
2:55 AM 51.8 °F 26.6 °F 38% 30.10 in 10.0 mi Calm Calm - N/A   Clear
3:15 AM 51.8 °F 28.4 °F 41% 30.09 in 10.0 mi Calm Calm - N/A   Clear
3:35 AM 51.8 °F 26.6 °F 38% 30.09 in 10.0 mi NNW 4.6 mph - N/A   Clear
3:55 AM 51.8 °F 26.6 °F 38% 30.09 in 10.0 mi Calm Calm - N/A   Clear
4:15 AM 51.8 °F 28.4 °F 41% 30.09 in 10.0 mi Calm Calm - N/A   Clear
4:35 AM 51.8 °F 28.4 °F 41% 30.08 in 10.0 mi Calm Calm - N/A Thunderstorm Clear
4:55 AM 51.8 °F 26.6 °F 38% 30.08 in 10.0 mi North 3.5 mph - N/A Thunderstorm Clear
5:15 AM 51.8 °F 26.6 °F 38% 30.08 in 10.0 mi NE 4.6 mph - N/A   Clear
5:35 AM 51.8 °F 28.4 °F 41% 30.08 in 10.0 mi NE 6.9 mph - N/A   Clear
5:55 AM 55.4 °F 23.0 °F 29% 30.08 in 10.0 mi NE 4.6 mph - N/A   Clear
6:15 AM 50.0 °F 28.4 °F 43% 30.08 in 10.0 mi Calm Calm - N/A   Clear
6:35 AM 50.0 °F 26.6 °F 40% 30.08 in 10.0 mi Calm Calm - N/A   Clear
6:55 AM 53.6 °F 24.8 °F 33% 30.08 in 10.0 mi Variable 4.6 mph - N/A   Clear
7:15 AM 53.6 °F 26.6 °F 35% 30.09 in 10.0 mi Calm Calm - N/A   Clear
7:35 AM 57.2 °F 21.2 °F 25% 30.09 in 10.0 mi East 4.6 mph - N/A   Clear
7:55 AM 59.0 °F 24.8 °F 27% 30.09 in 10.0 mi East 3.5 mph - N/A   Clear
8:15 AM 60.8 °F 23.0 °F 23% 30.09 in 10.0 mi Calm Calm - N/A   Clear
8:35 AM 64.4 °F 21.2 °F 19% 30.09 in 10.0 mi Calm Calm - N/A   Clear
8:55 AM 64.4 °F 21.2 °F 19% 30.09 in 10.0 mi Calm Calm - N/A Thunderstorm Clear
9:15 AM 64.4 °F 21.2 °F 19% 30.09 in 10.0 mi Calm Calm - N/A   Clear
9:35 AM 66.2 °F 21.2 °F 18% 30.09 in 10.0 mi ESE 5.8 mph - N/A   Clear
9:55 AM 68.0 °F 21.2 °F 17% 30.09 in 10.0 mi SE 5.8 mph - N/A   Clear
10:15 AM 71.6 °F 21.2 °F 15% 30.08 in 10.0 mi SSE 12.7 mph - N/A   Clear
10:35 AM 73.4 °F 23.0 °F 15% 30.08 in 10.0 mi South 12.7 mph - N/A   Clear
10:55 AM 73.4 °F 23.0 °F 15% 30.07 in 10.0 mi South 11.5 mph 17.3 mph N/A   Clear
11:15 AM 75.2 °F 23.0 °F 14% 30.06 in 10.0 mi South 12.7 mph 20.7 mph N/A   Clear
11:35 AM 75.2 °F 23.0 °F 14% 30.05 in 10.0 mi SSE 12.7 mph 20.7 mph N/A   Clear
11:55 AM 77.0 °F 23.0 °F 13% 30.05 in 10.0 mi South 11.5 mph 19.6 mph N/A   Clear
12:15 PM 77.0 °F 23.0 °F 13% 30.03 in 10.0 mi South 15.0 mph 25.3 mph N/A   Clear
12:35 PM 77.0 °F 23.0 °F 13% 30.02 in 10.0 mi SSE 12.7 mph 21.9 mph N/A Thunderstorm Clear
12:55 PM 78.8 °F 23.0 °F 13% 30.01 in 10.0 mi SSE 17.3 mph - N/A   Clear
1:15 PM 78.8 °F 23.0 °F 13% 29.99 in 10.0 mi SSE 19.6 mph - N/A   Clear
1:35 PM 78.8 °F 23.0 °F 13% 29.98 in 10.0 mi South 21.9 mph - N/A   Clear
1:55 PM 80.6 °F 23.0 °F 12% 29.97 in 10.0 mi South 17.3 mph 23.0 mph N/A   Clear
2:15 PM 80.6 °F 19.4 °F 10% 29.97 in 10.0 mi SW 16.1 mph - N/A   Clear
2:35 PM 82.4 °F 21.2 °F 10% 29.95 in 10.0 mi WSW 17.3 mph 24.2 mph N/A   Clear
2:55 PM 80.6 °F 21.2 °F 11% 29.94 in 10.0 mi WSW 21.9 mph - N/A   Clear
3:15 PM 80.6 °F 19.4 °F 10% 29.94 in - WSW 19.6 mph 28.8 mph N/A   Clear
3:35 PM 80.6 °F 19.4 °F 10% 29.93 in 10.0 mi SW 20.7 mph - N/A   Clear
3:55 PM 82.4 °F 19.4 °F 10% 29.92 in 10.0 mi SW 19.6 mph - N/A   Clear
4:15 PM 80.6 °F 21.2 °F 11% 29.91 in 10.0 mi SW 9.2 mph 20.7 mph N/A   Clear
4:35 PM 80.6 °F 21.2 °F 11% 29.91 in 10.0 mi SW 18.4 mph 26.5 mph N/A   Clear
4:55 PM 80.6 °F 21.2 °F 11% 29.90 in 10.0 mi SW 21.9 mph - N/A Thunderstorm Clear
5:15 PM 78.8 °F 21.2 °F 12% 29.90 in 10.0 mi SW 17.3 mph - N/A Thunderstorm Clear
5:35 PM 78.8 °F 21.2 °F 12% 29.90 in 10.0 mi SW 16.1 mph - N/A   Clear
5:55 PM 78.8 °F 21.2 °F 12% 29.89 in 10.0 mi SW 16.1 mph 25.3 mph N/A   Clear
6:15 PM 77.0 °F 23.0 °F 13% 29.89 in 10.0 mi SW 17.3 mph 25.3 mph N/A   Clear
6:35 PM 77.0 °F 23.0 °F 13% 29.89 in 10.0 mi SSW 13.8 mph 19.6 mph N/A   Clear
6:55 PM 77.0 °F 23.0 °F 13% 29.88 in 10.0 mi SSW 16.1 mph - N/A   Clear
7:15 PM 75.2 °F 23.0 °F 14% 29.88 in 10.0 mi SSW 8.1 mph - N/A Thunderstorm Clear
7:35 PM 75.2 °F 23.0 °F 14% 29.88 in 10.0 mi South 8.1 mph - N/A   Clear
7:55 PM 73.4 °F 23.0 °F 15% 29.89 in 10.0 mi SSE 6.9 mph - N/A   Clear
8:15 PM 73.4 °F 23.0 °F 15% 29.88 in 10.0 mi South 13.8 mph - N/A   Clear
8:35 PM 71.6 °F 23.0 °F 16% 29.88 in 10.0 mi South 12.7 mph - N/A   Clear
8:55 PM 73.4 °F 23.0 °F 15% 29.88 in 10.0 mi South 13.8 mph - N/A   Clear
9:15 PM 71.6 °F 23.0 °F 16% 29.89 in 10.0 mi South 12.7 mph - N/A   Clear
9:35 PM 71.6 °F 23.0 °F 16% 29.88 in 10.0 mi SW 9.2 mph 15.0 mph N/A   Partly Cloudy
9:55 PM 71.6 °F 23.0 °F 16% 29.88 in 10.0 mi WSW 18.4 mph - N/A   Clear
10:15 PM 71.6 °F 23.0 °F 16% 29.88 in 10.0 mi WSW 10.4 mph 23.0 mph N/A   Clear
10:35 PM 68.0 °F 23.0 °F 18% 29.88 in 10.0 mi SW 5.8 mph - N/A   Clear
10:55 PM 68.0 °F 24.8 °F 20% 29.88 in 10.0 mi SSW 5.8 mph - N/A   Clear
11:15 PM 66.2 °F 24.8 °F 21% 29.87 in 10.0 mi Calm Calm - N/A   Clear
11:35 PM 64.4 °F 28.4 °F 26% 29.86 in 10.0 mi Calm Calm - N/A Thunderstorm Clear
11:55 PM 68.0 °F 24.8 °F 20% 29.86 in 10.0 mi South 5.8 mph 12.7 mph N/A   Clear